• In India
  • List of Countries
  • For 7 days
  • Water Temperature
  • Satellite Maps
  • Weather Map
  • Weather Widgets
  • user-avatar
    Login

    Hourly Weather Kaprun

    Today, 26 September, Tuesday

    Time Temperature Precipitation Wind Pressure Humidity
    00:00 +1°C° 0 mm 1 mps 598 mmHg 93%
    01:00 0°C° 0 mm 1 mps 598 mmHg 94%
    02:00 0°C° 0 mm 1 mps 598 mmHg 93%
    03:00 0°C° 0 mm 1 mps 597 mmHg 93%
    04:00 0°C° 0 mm 1 mps 597 mmHg 93%
    05:00 0°C° 0 mm 1 mps 598 mmHg 92%
    06:00 0°C° 0 mm 1 mps 598 mmHg 91%
    07:00 +2°C° 0 mm 1 mps 599 mmHg 86%
    08:00 +4°C° 0 mm 1 mps 600 mmHg 79%
    09:00 +6°C° 0 mm 1 mps 601 mmHg 73%
    10:00 +7°C° 0 mm 0 mps 602 mmHg 66%
    11:00 +9°C° 0 mm 1 mps 602 mmHg 65%
    12:00 +9°C° 0 mm 1 mps 602 mmHg 63%
    13:00 +10°C° 0 mm 1 mps 602 mmHg 64%
    14:00 +9°C° 0.1 mm 1 mps 602 mmHg 67%
    15:00 +9°C° 0.1 mm 1 mps 602 mmHg 71%
    16:00 +8°C° 0.1 mm 1 mps 601 mmHg 74%
    17:00 +6°C° 0.1 mm 1 mps 601 mmHg 80%
    18:00 +4°C° 0.1 mm 1 mps 600 mmHg 87%
    19:00 +3°C° 0.1 mm 1 mps 599 mmHg 93%
    20:00 +2°C° 0 mm 1 mps 600 mmHg 93%
    21:00 +2°C° 0 mm 1 mps 600 mmHg 92%
    22:00 +1°C° 0 mm 1 mps 600 mmHg 92%
    23:00 +1°C° 0 mm 1 mps 600 mmHg 91%

    Tomorrow, 27 September, Wednesday

    Time Temperature Precipitation Wind Pressure Humidity
    00:00 +1°C° 0 mm 1 mps 600 mmHg 90%
    01:00 +1°C° 0 mm 1 mps 600 mmHg 90%
    02:00 +1°C° 0 mm 1 mps 599 mmHg 89%
    03:00 0°C° 0 mm 1 mps 599 mmHg 88%
    04:00 0°C° 0 mm 1 mps 599 mmHg 87%
    05:00 +1°C° 0 mm 1 mps 600 mmHg 86%
    06:00 +1°C° 0 mm 1 mps 600 mmHg 85%
    07:00 +2°C° 0 mm 1 mps 600 mmHg 84%
    08:00 +4°C° 0 mm 1 mps 601 mmHg 78%
    09:00 +7°C° 0 mm 1 mps 603 mmHg 72%
    10:00 +9°C° 0 mm 1 mps 604 mmHg 66%
    11:00 +10°C° 0 mm 1 mps 604 mmHg 63%
    12:00 +11°C° 0 mm 1 mps 604 mmHg 60%
    13:00 +12°C° 0 mm 1 mps 604 mmHg 58%
    14:00 +11°C° 0.1 mm 1 mps 604 mmHg 61%
    15:00 +11°C° 0.1 mm 1 mps 604 mmHg 65%
    16:00 +9°C° 0.1 mm 2 mps 604 mmHg 69%
    17:00 +8°C° 0.1 mm 1 mps 603 mmHg 77%
    18:00 +6°C° 0.1 mm 1 mps 602 mmHg 84%
    19:00 +4°C° 0.1 mm 1 mps 601 mmHg 92%
    20:00 +3°C° 0 mm 1 mps 601 mmHg 92%
    21:00 +3°C° 0 mm 1 mps 601 mmHg 91%
    22:00 +3°C° 0 mm 1 mps 602 mmHg 91%
    23:00 +3°C° 0 mm 1 mps 602 mmHg 91%

    Day after tomorrow, 28 September, Thursday

    Time Temperature Precipitation Wind Pressure Humidity
    00:00 +2°C° 0 mm 1 mps 602 mmHg 91%
    01:00 +2°C° 0 mm 1 mps 602 mmHg 90%
    02:00 +2°C° 0 mm 1 mps 602 mmHg 90%
    03:00 +2°C° 0 mm 1 mps 602 mmHg 89%
    04:00 +2°C° 0 mm 1 mps 602 mmHg 88%
    05:00 +2°C° 0 mm 1 mps 602 mmHg 86%
    06:00 +3°C° 0 mm 1 mps 602 mmHg 84%
    07:00 +3°C° 0 mm 1 mps 603 mmHg 82%
    08:00 +6°C° 0 mm 1 mps 604 mmHg 75%
    09:00 +9°C° 0 mm 1 mps 605 mmHg 67%
    10:00 +10°C° 0 mm 0 mps 606 mmHg 60%
    11:00 +12°C° 0 mm 1 mps 606 mmHg 58%
    12:00 +12°C° 0 mm 1 mps 606 mmHg 55%
    13:00 +13°C° 0 mm 1 mps 606 mmHg 53%
    14:00 +12°C° 0.1 mm 1 mps 606 mmHg 59%
    15:00 +11°C° 0.1 mm 1 mps 606 mmHg 65%
    16:00 +11°C° 0.1 mm 1 mps 605 mmHg 71%
    17:00 +9°C° 0.1 mm 1 mps 605 mmHg 78%
    18:00 +7°C° 0.1 mm 1 mps 604 mmHg 85%
    19:00 +5°C° 0.1 mm 1 mps 603 mmHg 91%
    20:00 +5°C° 0 mm 1 mps 603 mmHg 92%
    21:00 +4°C° 0 mm 1 mps 603 mmHg 92%
    22:00 +4°C° 0 mm 1 mps 603 mmHg 92%
    23:00 +3°C° 0 mm 1 mps 603 mmHg 91%

    29 September, Friday

    Time Temperature Precipitation Wind Pressure Humidity
    00:00 +3°C° 0 mm 1 mps 602 mmHg 91%
    01:00 +3°C° 0 mm 1 mps 602 mmHg 90%
    02:00 +3°C° 0 mm 1 mps 602 mmHg 87%
    03:00 +3°C° 0 mm 1 mps 602 mmHg 84%
    04:00 +3°C° 0 mm 1 mps 602 mmHg 82%
    05:00 +3°C° 0 mm 1 mps 602 mmHg 80%
    06:00 +4°C° 0 mm 1 mps 602 mmHg 78%
    07:00 +4°C° 0 mm 1 mps 602 mmHg 75%
    08:00 +6°C° 0 mm 1 mps 603 mmHg 70%
    09:00 +9°C° 0 mm 1 mps 604 mmHg 64%
    10:00 +11°C° 0 mm 1 mps 605 mmHg 59%
    11:00 +12°C° 0.1 mm 1 mps 605 mmHg 58%
    12:00 +12°C° 0.1 mm 1 mps 605 mmHg 58%
    13:00 +13°C° 0.1 mm 1 mps 605 mmHg 57%
    14:00 +12°C° 0.7 mm 1 mps 605 mmHg 64%
    15:00 +11°C° 0.7 mm 1 mps 604 mmHg 70%
    16:00 +10°C° 0.7 mm 1 mps 603 mmHg 77%
    17:00 +8°C° 0.5 mm 1 mps 603 mmHg 82%
    18:00 +7°C° 0.5 mm 1 mps 602 mmHg 87%
    19:00 +5°C° 0.5 mm 1 mps 602 mmHg 92%
    20:00 +4°C° 0 mm 1 mps 601 mmHg 93%
    21:00 +4°C° 0 mm 1 mps 601 mmHg 93%
    22:00 +3°C° 0 mm 1 mps 601 mmHg 93%
    23:00 +3°C° 0 mm 1 mps 601 mmHg 92%

    30 September, Saturday

    Time Temperature Precipitation Wind Pressure Humidity
    00:00 +3°C° 0 mm 1 mps 601 mmHg 91%
    01:00 +2°C° 0 mm 1 mps 600 mmHg 90%
    02:00 +2°C° 0 mm 1 mps 600 mmHg 89%
    03:00 +2°C° 0 mm 1 mps 600 mmHg 88%
    04:00 +2°C° 0 mm 1 mps 600 mmHg 87%
    05:00 +2°C° 0 mm 1 mps 600 mmHg 87%
    06:00 +2°C° 0 mm 1 mps 600 mmHg 86%
    07:00 +3°C° 0 mm 1 mps 600 mmHg 85%
    08:00 +5°C° 0 mm 1 mps 601 mmHg 77%
    09:00 +7°C° 0 mm 0 mps 602 mmHg 69%
    10:00 +10°C° 0 mm 0 mps 603 mmHg 60%
    11:00 +10°C° 0 mm 0 mps 603 mmHg 58%
    12:00 +12°C° 0 mm 1 mps 603 mmHg 55%
    13:00 +13°C° 0 mm 1 mps 603 mmHg 52%
    14:00 +12°C° 0 mm 1 mps 603 mmHg 56%
    15:00 +11°C° 0 mm 1 mps 602 mmHg 60%
    16:00 +11°C° 0 mm 1 mps 602 mmHg 65%
    17:00 +9°C° 0 mm 1 mps 601 mmHg 74%
    18:00 +6°C° 0 mm 1 mps 600 mmHg 83%
    19:00 +4°C° 0 mm 1 mps 599 mmHg 93%
    20:00 +4°C° 0 mm 1 mps 599 mmHg 92%
    21:00 +4°C° 0 mm 1 mps 599 mmHg 92%
    22:00 +4°C° 0 mm 1 mps 599 mmHg 92%
    23:00 +4°C° 0 mm 1 mps 599 mmHg 92%

    1 October, Sunday

    Time Temperature Precipitation Wind Pressure Humidity
    00:00 +4°C° 0 mm 1 mps 599 mmHg 92%
    01:00 +4°C° 0 mm 1 mps 599 mmHg 92%
    02:00 +4°C° 0 mm 1 mps 599 mmHg 92%
    03:00 +3°C° 0 mm 1 mps 599 mmHg 92%
    04:00 +3°C° 0 mm 1 mps 599 mmHg 92%
    05:00 +3°C° 0 mm 1 mps 599 mmHg 92%
    06:00 +3°C° 0 mm 1 mps 599 mmHg 91%
    07:00 +3°C° 0 mm 1 mps 599 mmHg 90%
    08:00 +6°C° 0 mm 1 mps 600 mmHg 81%
    09:00 +7°C° 0 mm 0 mps 601 mmHg 71%
    10:00 +10°C° 0 mm 0 mps 602 mmHg 61%
    11:00 +10°C° 0 mm 0 mps 602 mmHg 61%
    12:00 +11°C° 0 mm 1 mps 602 mmHg 61%
    13:00 +12°C° 0 mm 1 mps 603 mmHg 62%
    14:00 +11°C° 0.2 mm 1 mps 602 mmHg 67%
    15:00 +10°C° 0.2 mm 1 mps 602 mmHg 72%
    16:00 +9°C° 0.2 mm 1 mps 601 mmHg 77%
    17:00 +8°C° 0.2 mm 1 mps 601 mmHg 84%
    18:00 +6°C° 0.2 mm 1 mps 601 mmHg 90%
    19:00 +5°C° 0.2 mm 1 mps 600 mmHg 96%
    20:00 +5°C° 0 mm 1 mps 600 mmHg 97%
    21:00 +5°C° 0 mm 1 mps 601 mmHg 97%
    22:00 +4°C° 0 mm 1 mps 601 mmHg 97%
    23:00 +4°C° 0 mm 1 mps 601 mmHg 98%
    Show more